Content
SEND FEEDBACK

Daily
Averages
Monthly
Summary
Jamaica

MONTEGO BAY, JAMAICA


Home > Caribbean > Jamaica
Elevation: 10 feet     Latitude: 18 30N     Longitude: 077 55W

WEATHER
 
SELECT A DAY
Number of Records: 172,735;   Date Range: 7/1/96 - 11/24/14
 
SHARE

PRINT THIS DATA

[ ← Previous Day ]
WEATHER ALMANAC - JULY 30, 2014
[ Next Day → ]
[ °C ]   °F
Weather ElementAverageHighLow
Temperature83.3 °F88 °F (1:00 pm)78.8 °F (5:00 am)
Dewpoint76.3 °F78.8 °F (2:00 pm)73 °F (10:00 pm)
Humidity78.7 %94 % (5:00 am)64 % (1:00 pm)
Barometer29.97 in30.01 in (1:00 am)29.92 in (5:00 pm)
Wind Speed6.2 mph12.7 mph (3:00 pm)
Weather ElementAverage
Visibility7.3 mi
Wind DirectionESE (108.4 °)

Weather ElementTotal
Precipitation---
Cooling Degree Days18.4 (Base 65)
Growing Degree Days33.4 (Base 50)
Averaged from 31 records on July 30, 2014
WEATHER CONDITIONS BREAKOUT
WIND DIRECTION BREAKOUT
WEATHER BY HOUR - JULY 30, 2014
[ °C ]   °F
Local TimeTemperatureDewpointHumidityBarometerVisibilityWind DirectionWind SpeedGust SpeedPrecipitationEventsConditions
1:00 AM82.0 °F77.0 °F81 %30.01 in7.0 miSSE (150°)5.8 mphHaze
1:00 AM82.4 °F77.0 °F84 %30.01 in6.2 miSSE (150°)5.8 mphPartly Cloudy
2:00 AM80.6 °F77.0 °F89 %29.98 in6.2 miESE (120°)3.5 mphThunderstormPartly Cloudy
3:00 AM80.6 °F77.0 °F89 %29.98 in6.2 miEast (90°)3.5 mphThunderstormThunderstorm
4:00 AM80.0 °F77.0 °F88 %29.97 in7.0 miWSW (240°)3.5 mphHaze
4:00 AM80.6 °F77.0 °F89 %29.95 in6.2 miWSW (240°)3.5 mphPartly Cloudy
5:00 AM78.8 °F77.0 °F94 %29.98 in6.2 miVariable2.3 mphPartly Cloudy
6:00 AM78.8 °F75.2 °F89 %29.98 in6.2 miVariable2.3 mphPartly Cloudy
7:00 AM82.0 °F76.0 °F78 %29.98 in7.0 miSSW (210°)3.5 mphHaze
7:00 AM82.4 °F77.0 °F84 %29.98 in6.2 miSSW (210°)3.5 mphPartly Cloudy
8:00 AM84.2 °F77.0 °F79 %29.98 in6.2 miNE (50°)3.5 mph
9:00 AM86.0 °F75.2 °F70 %29.98 in6.2 miNNE (30°)5.8 mphPartly Cloudy
10:00 AM86.0 °F76.0 °F66 %29.99 in12.0 miNNE (30°)6.9 mphHaze
10:00 AM86.0 °F77.0 °F74 %29.98 in6.2 miNNE (30°)6.9 mphPartly Cloudy
11:00 AM86.0 °F77.0 °F74 %29.98 in6.2 miNorth (10°)8.1 mphPartly Cloudy
12:00 PM87.8 °F77.0 °F70 %29.98 in6.2 miNE (40°)9.2 mphPartly Cloudy
1:00 PM88.0 °F77.0 °F64 %29.97 in12.0 miNE (40°)10.4 mphHaze
1:00 PM87.8 °F77.0 °F70 %29.95 in6.2 miNE (40°)10.4 mphPartly Cloudy
2:00 PM87.8 °F78.8 °F75 %29.95 in6.2 miNE (50°)11.5 mphPartly Cloudy
3:00 PM87.8 °F78.8 °F75 %29.95 in6.2 miENE (60°)12.7 mphScattered Clouds
4:00 PM85.0 °F76.0 °F69 %29.96 in12.0 miEast (90°)9.2 mphHaze
4:00 PM84.2 °F77.0 °F79 %29.95 in6.2 miEast (90°)9.2 mphMostly Cloudy
5:00 PM84.2 °F77.0 °F79 %29.92 in6.2 miEast (90°)8.1 mphMostly Cloudy
6:00 PM82.4 °F75.2 °F79 %29.95 in6.2 miSSW (200°)8.1 mphScattered Clouds
7:00 PM83.0 °F76.0 °F75 %29.96 in14.0 miEast (90°)6.9 mphHaze
7:00 PM82.4 °F77.0 °F84 %29.95 in6.2 miEast (90°)6.9 mphPartly Cloudy
8:00 PM82.4 °F73.4 °F74 %29.98 in6.2 miSSW (200°)4.6 mphPartly Cloudy
9:00 PM80.6 °F73.4 °F79 %29.98 in6.2 miSouth (180°)3.5 mphPartly Cloudy
10:00 PM81.0 °F73.0 °F72 %30.00 in14.0 miSouth (180°)4.6 mphHaze
10:00 PM80.6 °F77.0 °F89 %29.98 in6.2 miSouth (180°)4.6 mphPartly Cloudy
11:00 PM80.6 °F73.4 °F79 %29.98 in6.2 miSouth (180°)4.6 mphPartly Cloudy
Hourly data recorded from MKJS, located miles away from Montego Bay, Jamaica







STORIES FROM OUR PARTNERS